Tracking 19212 objects as of 17-Jul-2018
HD Live streaming from Space Station
objects crossing your sky now

OPS 9346 (IDSCS 25)

Track OPS 9346 (IDSCS 25) now!
OPS 9346 (IDSCS 25) is classified as:


NORAD ID: 3289
Int'l Code: 1968-050F
Perigee: 33,750.5 km
Apogee: 34,119.1 km
Inclination: 1.6 °
Period: 1,342.2 minutes
Semi major axis: 40305 km
RCS: 0.3981 m2 (medium)
Launch date: June 13, 1968
Source: United States (US)
Launch site: AIR FORCE EASTERN TEST RANGE (AFETR)
aabbcc
Your satellite tracking list
Your tracking list is empty




NASA's NSSDC Master Catalog

Two Line Element Set (TLE):
1  3289U 68050F   18197.64290062 -.00000127 +00000-0 +00000-0 0  9997
2  3289 001.5576 046.3164 0045731 085.0533 139.3069 01.07288074019611
Source of the keplerian elements: AFSPC